Location: Newark
(5.5500°N, 0.2500°W)
Time: 01:53:21
(UTC+00:00)

Hubble Space Telescope - Pass Details

Date: 24 September 2019
Orbit: 536 x 540 km, 28.5° (Epoch: 20 October)

Event Time Altitude Azimuth Distance (km) Brightness Sun altitude
Rises 19:09:50 0° 239° (WSW) 2,670 5.3 -19.2°
Reaches altitude 10° 19:12:06 10° 238° (WSW) 1,779 4.2 -19.7°
Maximum altitude 19:16:13 83° 150° (SSE) 539 0.6 -20.8°
Enters shadow 19:16:43 67° 78° (ENE) 577 0.6 -20.9°
